[[{"header":{"parameterUnit":"m.s-1","parameterCategory":1,"la1":30.2991,"la2":30.254,"lo1":-89.0895,"lo2":-89.0444,"dy":0.0017,"dx":0.0017,"nx":28,"ny":28,"refTime":"2025-09-04T21:00:00:Z","depth":0,"parameterNumber":2,"parameterNumberName":"U-component_of_WINDS"},"data":[0,0,0,0,0,0,0,0,0,0,0,0,0,0,0,0,0,0,0,0,0,0,0,0,0,0,0,0,0,0,0,0,0,0,0,0,0,0,0,0,0,0,0,0,0,0,0,0,0,0,0,0,0,0,0,0,0,0,-0.6341,-0.6342,0,-0.6398,-0.6398,-0.6399,-0.6404,-0.6403,-0.6403,-0.6402,-0.6462,-0.6464,-0.6466,0,0,0,0,0,0,0,0,0,0,0,0,0,-0.6238,-0.624,-0.6341,-0.6342,-0.6342,-0.6398,-0.6398,-0.6399,-0.6404,-0.6403,-0.6403,-0.6402,-0.6461,-0.6463,-0.6466,0,0,0,0,0,0,0,0,0,0,0,0,0,-0.6288,-0.6241,-0.6341,-0.6351,-0.6353,-0.6397,-0.6398,-0.6399,-0.6404,-0.6403,-0.6402,-0.6402,-0.646,-0.6463,-0.6466,-0.6504,0,0,-0.6476,-0.6477,0,0,0,0,0,0,0,0,-0.6285,-0.6291,-0.6349,-0.6351,-0.6353,-0.6393,-0.6384,-0.6435,-0.6405,-0.6385,-0.6402,-0.6401,-0.6439,-0.6444,-0.6457,-0.6507,-0.651,-0.6476,-0.6478,-0.648,-0.6481,0,0,0,0,0,0,0,-0.6281,-0.6289,-0.6363,-0.635,-0.6352,-0.6354,-0.636,-0.6393,-0.6417,-0.6386,-0.6387,-0.6394,-0.644,-0.6454,-0.6458,-0.651,-0.6476,-0.6479,-0.6481,-0.6482,-0.6595,-0.6596,0,0,0,0,0,0,-0.6276,-0.6286,-0.6362,-0.6365,-0.6316,-0.6356,-0.6363,-0.6381,-0.6416,-0.6421,-0.6394,-0.6394,-0.6449,-0.6455,-0.6461,-0.6508,-0.648,-0.6483,-0.6485,-0.6594,-0.6595,-0.6596,0,0,0,0,0,0,-0.6274,-0.6282,-0.6359,-0.6326,-0.6336,-0.6359,-0.6379,-0.6382,-0.6396,-0.6422,-0.6426,-0.6404,-0.6448,-0.6456,-0.6493,-0.651,-0.6484,-0.6487,-0.6593,-0.6594,-0.6596,-0.6602,0,0,0,0,0,0,-0.6271,-0.6282,-0.6296,-0.6326,-0.6337,-0.6391,-0.638,-0.6384,-0.6401,-0.6401,-0.6432,-0.6437,-0.6448,-0.6489,-0.6497,-0.6514,-0.649,-0.6591,-0.6593,-0.6595,-0.66,-0.6603,-0.6606,0,0,0,0,0,-0.6267,-0.6295,-0.6297,-0.6306,-0.6356,-0.6392,-0.6398,-0.6411,-0.6403,-0.6418,-0.6434,-0.6436,-0.6507,-0.6492,-0.6501,-0.652,-0.659,-0.6593,-0.6595,-0.6599,-0.6603,-0.6606,0,0,0,0,0,0,-0.6267,-0.63,-0.6301,-0.634,-0.6363,-0.6392,-0.6411,-0.6414,-0.644,-0.6439,-0.6454,-0.6461,-0.6498,-0.6512,-0.6496,-0.6559,-0.6548,-0.6552,-0.6547,-0.6551,-0.6554,-0.655,-0.6492,0,0,0,0,0,-0.6271,-0.6297,-0.6325,-0.6357,-0.6368,-0.6388,-0.6404,-0.6412,-0.6436,-0.6446,-0.6465,-0.6489,-0.6517,-0.6535,-0.6562,-0.6602,-0.6609,-0.662,-0.6622,-0.6625,-0.6628,-0.6651,-0.6656,-0.6604,-0.6604,-0.6604,0,0,-0.6281,-0.6302,-0.6318,-0.6357,-0.6376,-0.6403,-0.6396,-0.6425,-0.6445,-0.645,-0.6487,-0.6502,-0.653,-0.6569,-0.6587,-0.6582,-0.6644,-0.6628,-0.6629,-0.6632,-0.6654,-0.6659,-0.6663,-0.6606,-0.6606,-0.6605,0,0,-0.6312,-0.6331,-0.6359,-0.6378,-0.6406,-0.6419,-0.6426,-0.6455,-0.6466,-0.6502,-0.6507,-0.6532,-0.6579,-0.6599,-0.6615,-0.6654,-0.6657,-0.6663,-0.6678,-0.67,-0.6704,-0.6708,-0.6722,-0.6727,-0.6666,-0.6666,-0.6666,0,-0.6321,-0.6361,-0.6374,-0.6403,-0.642,-0.6426,-0.6455,-0.6473,-0.6509,-0.6521,-0.6515,-0.6575,-0.6594,-0.6638,-0.6648,-0.6661,-0.6669,-0.6659,-0.6702,-0.6706,-0.671,-0.6724,-0.6729,-0.6667,-0.6667,-0.6667,-0.6667,0,-0.637,-0.6398,-0.6418,-0.6452,-0.6472,-0.6501,-0.6518,-0.6537,-0.6543,-0.6557,-0.6595,-0.6618,-0.665,-0.6661,-0.6667,-0.6706,-0.6702,-0.6699,-0.6689,-0.6715,-0.6728,-0.6734,-0.6668,-0.6668,-0.6667,-0.6667,0,0,-0.6403,-0.6444,-0.6451,-0.6466,-0.6498,-0.652,-0.655,-0.6581,-0.6597,-0.6621,-0.6647,-0.6687,-0.6684,-0.6703,-0.6712,-0.6731,-0.6761,-0.6726,-0.6727,-0.6732,-0.6805,-0.6807,-0.6813,-0.6763,-0.6764,-0.6765,-0.6803,0,-0.6437,-0.649,-0.6502,-0.6547,-0.6573,-0.658,-0.6605,-0.6628,-0.6642,-0.6667,-0.6682,-0.6711,-0.6705,-0.6716,-0.6736,-0.6753,-0.6776,-0.6751,-0.6787,-0.6788,-0.6779,-0.682,-0.6822,-0.6857,-0.6808,-0.6809,-0.681,0,-0.6485,-0.651,-0.6558,-0.6586,-0.6598,-0.6621,-0.665,-0.6674,-0.67,-0.6709,-0.673,-0.6736,-0.6768,-0.6756,-0.68,-0.6782,-0.6798,-0.6809,-0.681,-0.6814,-0.68,-0.6825,-0.6868,-0.6874,-0.6818,-0.6817,-0.6817,0,-0.6504,-0.655,-0.6584,-0.6598,-0.6632,-0.6648,-0.6663,-0.6688,-0.6706,-0.6732,-0.6744,-0.6774,-0.679,-0.6813,-0.6828,-0.6818,-0.687,-0.686,-0.6879,-0.6879,-0.689,-0.6889,-0.6936,-0.69,-0.69,-0.69,-0.69,0,-0.6541,-0.657,-0.6593,-0.6614,-0.6647,-0.6661,-0.6694,-0.6709,-0.6731,-0.6756,-0.6763,-0.6786,-0.6805,-0.6831,-0.6843,-0.6877,-0.6884,-0.6893,-0.6896,-0.6892,-0.6891,-0.6902,-0.69,-0.6901,-0.6901,-0.69,-0.69,0,-0.6567,-0.6584,-0.6622,-0.6652,-0.666,-0.6683,-0.6708,-0.6729,-0.6743,-0.6774,-0.6783,-0.6805,-0.6836,-0.6853,-0.6892,-0.69,-0.6939,-0.694,-0.693,-0.6931,-0.6949,-0.6947,-0.7006,-0.7014,-0.6972,-0.6972,-0.6973,0,-0.659,-0.6612,-0.6644,-0.6661,-0.6676,-0.6704,-0.6722,-0.6737,-0.6756,-0.6788,-0.6805,-0.6836,-0.6862,-0.6911,-0.6931,-0.6961,-0.6963,-0.6982,-0.6968,-0.6964,-0.6964,-0.6962,-0.6965,-0.6984,-0.6985,-0.6985,-0.6985,0,-0.6629,-0.6636,-0.6662,-0.6691,-0.6713,-0.6736,-0.676,-0.6773,-0.6793,-0.6814,-0.6845,-0.6865,-0.6905,-0.6936,-0.6967,-0.6983,-0.6988,-0.6989,-0.6995,-0.6992,-0.6985,-0.6989,-0.6936,-0.6988,-0.6988,-0.6987,-0.6987,-0.6987,-0.6654,-0.6674,-0.67,-0.6729,-0.6748,-0.677,-0.6791,-0.6808,-0.6834,-0.6868,-0.6875,-0.6908,-0.6935,-0.6977,-0.6994,-0.7021,-0.7017,-0.7026,-0.7028,-0.703,-0.7031,-0.6981,-0.7027,-0.7027,-0.7027,-0.7026,-0.7026,0,-0.6693,-0.671,-0.6736,-0.6769,-0.6792,-0.6794,-0.682,-0.6839,-0.6868,-0.6892,-0.6917,-0.6953,-0.6983,-0.7006,-0.7037,-0.7054,-0.7057,-0.7062,-0.7061,-0.7064,-0.7032,-0.7024,-0.7059,-0.7059,-0.7059,-0.7059,-0.7059,-0.7059,-0.6716,-0.675,-0.676,-0.6805,-0.6822,-0.6854,-0.6869,-0.6889,-0.6908,-0.6949,-0.6974,-0.6988,-0.7012,-0.7045,-0.7073,-0.7078,-0.709,-0.7094,-0.71,-0.707,-0.7066,-0.7063,-0.7055,-0.7096,-0.7096,-0.713,-0.7131,-0.7131]},{"header":{"parameterUnit":"m.s-1","parameterCategory":1,"la1":30.2991,"la2":30.254,"lo1":-89.0895,"lo2":-89.0444,"dy":0.0017,"dx":0.0017,"nx":28,"ny":28,"refTime":"2025-09-04T21:00:00:Z","depth":0,"parameterNumber":3,"parameterNumberName":"V-component_of_WINDS"},"data":[0,0,0,0,0,0,0,0,0,0,0,0,0,0,0,0,0,0,0,0,0,0,0,0,0,0,0,0,0,0,0,0,0,0,0,0,0,0,0,0,0,0,0,0,0,0,0,0,0,0,0,0,0,0,0,0,0,0,0.7986,0.7987,0,0.8004,0.8004,0.8004,0.8029,0.803,0.803,0.8031,0.8048,0.8048,0.8048,0,0,0,0,0,0,0,0,0,0,0,0,0,0.7975,0.7975,0.7986,0.7987,0.7987,0.8004,0.8004,0.8004,0.8029,0.803,0.803,0.8031,0.8048,0.8048,0.8048,0,0,0,0,0,0,0,0,0,0,0,0,0,0.7985,0.7975,0.7986,0.8002,0.8003,0.8004,0.8004,0.8004,0.8029,0.803,0.8031,0.8031,0.8048,0.8048,0.8048,0.8035,0,0,0.8048,0.8048,0,0,0,0,0,0,0,0,0.7984,0.7985,0.7999,0.8001,0.8002,0.8015,0.8006,0.8014,0.8029,0.8019,0.8031,0.8032,0.8036,0.8037,0.8039,0.8036,0.8036,0.8048,0.8048,0.8048,0.8048,0,0,0,0,0,0,0,0.7984,0.7985,0.7993,0.7999,0.8001,0.8007,0.801,0.8008,0.8024,0.802,0.8022,0.8024,0.8037,0.8039,0.804,0.8037,0.8048,0.8048,0.8048,0.8048,0.8023,0.8023,0,0,0,0,0,0,0.7981,0.7984,0.7993,0.7994,0.7995,0.8007,0.8009,0.801,0.8024,0.8027,0.8023,0.8025,0.8039,0.804,0.804,0.8026,0.8048,0.8048,0.8048,0.8024,0.8023,0.8023,0,0,0,0,0,0,0.7981,0.7981,0.7992,0.7989,0.7991,0.8007,0.8007,0.801,0.8012,0.8026,0.8029,0.8022,0.8039,0.804,0.8036,0.8027,0.8048,0.8048,0.8025,0.8024,0.8023,0.7997,0,0,0,0,0,0,0.798,0.7981,0.7976,0.7989,0.7991,0.7987,0.8007,0.801,0.8012,0.8014,0.8026,0.8028,0.804,0.8036,0.8036,0.8027,0.8048,0.8026,0.8024,0.8023,0.7999,0.7995,0.7992,0,0,0,0,0,0.798,0.7968,0.7976,0.7977,0.7986,0.7987,0.7988,0.8002,0.8011,0.8007,0.8016,0.8028,0.8028,0.8035,0.8036,0.8027,0.8026,0.8025,0.8023,0.8,0.7996,0.7992,0,0,0,0,0,0,0.7954,0.797,0.7979,0.7971,0.7978,0.7991,0.7986,0.7997,0.8,0.8002,0.8019,0.8021,0.8014,0.802,0.8028,0.8015,0.8029,0.8028,0.8011,0.8007,0.8004,0.8003,0.8048,0,0,0,0,0,0.7947,0.7947,0.7961,0.7953,0.7956,0.797,0.7971,0.7981,0.7988,0.7991,0.8,0.8006,0.8007,0.8008,0.801,0.8,0.8003,0.7994,0.7991,0.7988,0.7986,0.7982,0.7978,0.8017,0.8017,0.8017,0,0,0.7934,0.7943,0.7941,0.7948,0.7954,0.7953,0.7972,0.797,0.797,0.799,0.7987,0.7994,0.8002,0.7994,0.7992,0.7999,0.7976,0.7986,0.7984,0.7984,0.798,0.7976,0.7972,0.8016,0.8017,0.8017,0,0,0.7908,0.7915,0.7909,0.7915,0.7924,0.7933,0.7932,0.7944,0.7949,0.7946,0.7961,0.7961,0.7963,0.7968,0.7971,0.7948,0.7959,0.7948,0.7931,0.7926,0.7923,0.792,0.7911,0.7908,0.7946,0.7946,0.7946,0,0.789,0.789,0.7905,0.7902,0.7905,0.7923,0.7917,0.7922,0.7931,0.7932,0.7941,0.7944,0.795,0.7945,0.7939,0.7941,0.7939,0.7947,0.7922,0.7919,0.7917,0.7909,0.7906,0.7945,0.7945,0.7945,0.7945,0,0.7867,0.7866,0.786,0.7869,0.7871,0.7866,0.7881,0.7881,0.7891,0.7899,0.7896,0.7905,0.7909,0.7908,0.7918,0.7904,0.7908,0.7919,0.7933,0.7912,0.7904,0.7902,0.7943,0.7943,0.7944,0.7944,0,0,0.7825,0.7842,0.784,0.7844,0.7855,0.7855,0.7851,0.7856,0.7855,0.7861,0.7858,0.786,0.787,0.7873,0.7883,0.7879,0.786,0.7891,0.7891,0.7884,0.7845,0.7837,0.7833,0.7868,0.7867,0.7867,0.7844,0,0.7802,0.7797,0.7811,0.7802,0.7802,0.782,0.7817,0.7823,0.7831,0.7832,0.7841,0.7842,0.7855,0.7857,0.7854,0.7863,0.7852,0.7865,0.7865,0.7865,0.7862,0.7829,0.782,0.7799,0.7842,0.7841,0.7841,0,0.7774,0.7778,0.777,0.7782,0.7782,0.7779,0.7784,0.7785,0.7793,0.7799,0.7802,0.7814,0.7812,0.7826,0.7823,0.7831,0.7832,0.7836,0.7836,0.7836,0.7851,0.7828,0.7792,0.7789,0.7837,0.7837,0.7837,0,0.7744,0.7748,0.7743,0.7746,0.776,0.7758,0.7763,0.7772,0.7773,0.7778,0.7779,0.7783,0.7785,0.7788,0.7801,0.781,0.7796,0.7811,0.7801,0.78,0.7796,0.7796,0.7759,0.7798,0.7798,0.7798,0.7798,0,0.7716,0.771,0.773,0.7727,0.7721,0.7737,0.7731,0.7738,0.7745,0.7744,0.776,0.7759,0.7776,0.7776,0.7786,0.7782,0.7783,0.7788,0.779,0.7786,0.7785,0.7787,0.7788,0.7797,0.7797,0.7797,0.7797,0,0.7682,0.7695,0.7691,0.7705,0.7708,0.7703,0.7714,0.7712,0.7721,0.772,0.772,0.7735,0.7736,0.7749,0.7753,0.776,0.7752,0.7758,0.7749,0.7751,0.774,0.774,0.7702,0.7698,0.7739,0.7738,0.7738,0,0.7663,0.7659,0.7672,0.7673,0.7677,0.7678,0.768,0.7695,0.7697,0.7705,0.7702,0.7705,0.7708,0.7709,0.772,0.7723,0.7729,0.7715,0.773,0.7725,0.7728,0.7728,0.7728,0.7712,0.7712,0.7711,0.7711,0,0.7628,0.7635,0.7637,0.7642,0.7644,0.7648,0.7653,0.7653,0.767,0.767,0.7672,0.7674,0.7679,0.7681,0.7686,0.7692,0.7704,0.7706,0.7704,0.7699,0.7695,0.7697,0.774,0.7707,0.7707,0.7708,0.7708,0.7708,0.7601,0.7598,0.7607,0.7609,0.7615,0.7619,0.7618,0.7627,0.7629,0.7634,0.7643,0.7643,0.7651,0.766,0.7664,0.7665,0.7672,0.7669,0.7668,0.7667,0.7664,0.7695,0.7666,0.7666,0.7666,0.7666,0.7666,0,0.7567,0.7574,0.7575,0.7582,0.7584,0.7595,0.7602,0.7602,0.7602,0.7609,0.7612,0.7614,0.7616,0.7627,0.7631,0.7629,0.7635,0.7629,0.763,0.7631,0.7658,0.7659,0.7625,0.7625,0.7625,0.7625,0.7625,0.7625,0.755,0.7545,0.7553,0.7552,0.7559,0.7559,0.7562,0.7566,0.7572,0.7573,0.7575,0.7583,0.7591,0.7595,0.7598,0.7601,0.7602,0.7595,0.76,0.7625,0.7629,0.7632,0.7634,0.7595,0.7595,0.7573,0.7572,0.7572]}]]